VTK601 UHHH-UIUU

Flight info

Callsign VTK601
Flight time N/A
Altitude 36000
Route IVADA2U IVADA A946 TORMA N992 GU G229 NIKTO P873 KU/K0846F380 W173 NERKA W268 RINOP A809 BULEL BULEL1X
Aircraft B38M/M-SDE1FGHILORVWXY/HB1

Departure

Time 2026-04-23 07:20
Airport Khabarovsk Novy Airport (UHHH)

Arrival

Time N/A
Airport Baikal International Airport (UIUU)
Time Latitude Longitude Altitude Speed Heading
2026-04-23 07:14 48.52545 135.17547 247 ft 0 kts 312°
2026-04-23 07:16 48.52545 135.17546 247 ft 1 kts 312°
2026-04-23 07:16 48.52559 135.17521 247 ft 7 kts 310°
2026-04-23 07:16 48.52553 135.17423 247 ft 13 kts 214°
2026-04-23 07:17 48.52476 135.17473 248 ft 14 kts 130°
2026-04-23 07:17 48.52402 135.17599 248 ft 18 kts 131°
2026-04-23 07:17 48.52312 135.17744 249 ft 20 kts 139°
2026-04-23 07:17 48.52190 135.17715 251 ft 19 kts 218°
2026-04-23 07:18 48.52087 135.17586 253 ft 19 kts 221°
2026-04-23 07:18 48.51980 135.17441 250 ft 22 kts 222°
2026-04-23 07:18 48.51855 135.17270 245 ft 26 kts 223°
2026-04-23 07:18 48.51735 135.17101 241 ft 20 kts 226°
2026-04-23 07:19 48.51684 135.16984 239 ft 6 kts 238°
2026-04-23 07:19 48.51651 135.16970 239 ft 4 kts 143°
2026-04-23 07:19 48.51653 135.16996 239 ft 2 kts 50°
2026-04-23 07:19 48.51669 135.17015 239 ft 4 kts 41°
2026-04-23 07:20 48.51844 135.17253 244 ft 72 kts 42°
2026-04-23 07:20 48.52392 135.18000 245 ft 139 kts 43°
2026-04-23 07:20 48.53231 135.19098 500 ft 171 kts 39°
2026-04-23 07:20 48.54126 135.20294 1499 ft 168 kts 41°
2026-04-23 07:21 48.55043 135.21375 2415 ft 177 kts 22°
2026-04-23 07:21 48.56350 135.21499 2906 ft 207 kts 346°
2026-04-23 07:21 48.57604 135.20188 3477 ft 240 kts 307°
2026-04-23 07:21 48.58293 135.17811 4332 ft 253 kts 296°
2026-04-23 07:22 48.59309 135.15589 5071 ft 260 kts 326°
2026-04-23 07:22 48.60784 135.14174 6368 ft 254 kts 330°
2026-04-23 07:22 48.62265 135.12607 7190 ft 266 kts 327°
2026-04-23 07:22 48.63728 135.10884 8212 ft 268 kts 324°
2026-04-23 07:23 48.65170 135.09054 9172 ft 273 kts 322°
2026-04-23 07:23 48.66610 135.07133 10103 ft 278 kts 320°
2026-04-23 07:23 48.68079 135.05115 10727 ft 294 kts 320°
2026-04-23 07:23 48.69614 135.02978 11120 ft 314 kts 320°
2026-04-23 07:24 48.71290 135.00627 11491 ft 335 kts 319°
2026-04-23 07:24 48.73043 134.98153 11804 ft 355 kts 319°
2026-04-23 07:24 48.74884 134.95540 12170 ft 370 kts 319°
2026-04-23 07:24 48.76758 134.92865 12755 ft 377 kts 319°
2026-04-23 07:25 48.78671 134.90108 13522 ft 382 kts 319°
2026-04-23 07:25 48.80610 134.87305 14140 ft 387 kts 318°
2026-04-23 07:25 48.82572 134.84463 14812 ft 390 kts 318°
2026-04-23 07:25 48.84545 134.81602 15436 ft 394 kts 318°
2026-04-23 07:26 48.86542 134.78701 15991 ft 400 kts 319°
2026-04-23 07:26 48.88565 134.75760 16588 ft 404 kts 318°
2026-04-23 07:26 48.90604 134.72788 17209 ft 408 kts 319°
2026-04-23 07:26 48.92664 134.69787 17777 ft 412 kts 319°
2026-04-23 07:27 48.94741 134.66755 18360 ft 416 kts 319°
2026-04-23 07:27 48.96838 134.63692 18861 ft 419 kts 319°
2026-04-23 07:27 48.98950 134.60601 19324 ft 424 kts 319°
2026-04-23 07:27 49.01087 134.57469 19779 ft 428 kts 319°
2026-04-23 07:28 49.03246 134.54303 20205 ft 433 kts 319°
2026-04-23 07:28 49.05419 134.51111 20697 ft 436 kts 320°
2026-04-23 07:28 49.07608 134.47869 21142 ft 441 kts 317°
2026-04-23 07:28 49.09479 134.44097 21580 ft 449 kts 307°
2026-04-23 07:29 49.11225 134.40109 21934 ft 456 kts 308°
2026-04-23 07:29 49.12988 134.36060 22364 ft 460 kts 307°
2026-04-23 07:29 49.14760 134.31958 22776 ft 464 kts 307°
2026-04-23 07:29 49.16542 134.27818 23179 ft 468 kts 307°
2026-04-23 07:30 49.18337 134.23640 23599 ft 472 kts 308°
2026-04-23 07:30 49.20146 134.19420 23929 ft 476 kts 307°
2026-04-23 07:30 49.21962 134.15178 24288 ft 478 kts 307°
2026-04-23 07:30 49.23790 134.10903 24686 ft 480 kts 307°
2026-04-23 07:31 49.25624 134.06609 25012 ft 483 kts 308°
2026-04-23 07:31 49.27439 134.02348 25368 ft 486 kts 308°
2026-04-23 07:31 49.29289 133.97999 25727 ft 488 kts 308°
2026-04-23 07:31 49.31143 133.93636 26081 ft 490 kts 308°
2026-04-23 07:32 49.33005 133.89245 26410 ft 493 kts 308°
2026-04-23 07:32 49.34877 133.84823 26757 ft 495 kts 307°
2026-04-23 07:32 49.36755 133.80381 27104 ft 497 kts 307°
2026-04-23 07:32 49.38640 133.75915 27405 ft 500 kts 307°
2026-04-23 07:33 49.40531 133.71426 27805 ft 500 kts 307°
2026-04-23 07:33 49.42419 133.66943 28260 ft 500 kts 308°
2026-04-23 07:33 49.44304 133.62472 28717 ft 499 kts 308°
2026-04-23 07:33 49.46187 133.57998 29185 ft 498 kts 308°
2026-04-23 07:34 49.48064 133.53533 29631 ft 497 kts 308°
2026-04-23 07:34 49.49941 133.49059 30060 ft 497 kts 308°
2026-04-23 07:34 49.51808 133.44599 30448 ft 496 kts 307°
2026-04-23 07:34 49.53673 133.40140 30826 ft 494 kts 307°
2026-04-23 07:35 49.55524 133.35704 31302 ft 490 kts 307°
2026-04-23 07:35 49.57358 133.31303 31726 ft 487 kts 307°
2026-04-23 07:35 49.59186 133.26910 32138 ft 485 kts 307°
2026-04-23 07:35 49.61002 133.22534 32544 ft 484 kts 307°
2026-04-23 07:36 49.62816 133.18163 32945 ft 481 kts 307°
2026-04-23 07:36 49.64611 133.13826 33350 ft 479 kts 306°
2026-04-23 07:36 49.66400 133.09499 33781 ft 476 kts 306°
2026-04-23 07:36 49.68174 133.05201 34161 ft 474 kts 306°
2026-04-23 07:37 49.69941 133.00911 34434 ft 473 kts 306°
2026-04-23 07:37 49.71701 132.96631 34712 ft 471 kts 306°
2026-04-23 07:37 49.72887 132.93743 34895 ft 471 kts 306°
2026-04-23 07:37 49.74618 132.89523 35168 ft 470 kts 306°
2026-04-23 07:38 49.76364 132.85259 35441 ft 469 kts 305°
2026-04-23 07:38 49.78105 132.81001 35711 ft 468 kts 305°
2026-04-23 07:38 49.79842 132.76747 35979 ft 467 kts 305°
2026-04-23 07:38 49.81572 132.72502 36225 ft 466 kts 305°
2026-04-23 07:39 49.83298 132.68260 36480 ft 465 kts 305°
2026-04-23 07:39 49.85018 132.64024 36726 ft 464 kts 304°
2026-04-23 07:39 49.86736 132.59791 36963 ft 463 kts 304°
2026-04-23 07:39 49.88448 132.55562 37193 ft 462 kts 304°
2026-04-23 07:40 49.90155 132.51339 37425 ft 462 kts 304°
2026-04-23 07:40 49.91857 132.47124 37651 ft 461 kts 304°
2026-04-23 07:40 49.93553 132.42915 37861 ft 460 kts 304°
2026-04-23 07:40 49.95247 132.38704 38017 ft 460 kts 303°
2026-04-23 07:41 49.96941 132.34488 38043 ft 460 kts 303°
2026-04-23 07:41 50.00310 132.26089 38048 ft 457 kts 303°
2026-04-23 07:42 50.03784 132.17816 38016 ft 454 kts 314°
2026-04-23 07:42 50.08166 132.10749 37998 ft 455 kts 315°
2026-04-23 07:43 50.12544 132.03646 38043 ft 455 kts 315°
2026-04-23 07:43 50.16928 131.96545 38038 ft 454 kts 315°
2026-04-23 07:44 50.21307 131.89434 38045 ft 455 kts 315°
2026-04-23 07:44 50.25689 131.82294 38047 ft 456 kts 315°
2026-04-23 07:45 50.30070 131.75136 38038 ft 455 kts 315°
2026-04-23 07:45 50.34456 131.67951 38050 ft 457 kts 315°
2026-04-23 07:46 50.38835 131.60756 38048 ft 456 kts 315°
2026-04-23 07:46 50.43219 131.53533 38045 ft 456 kts 315°
2026-04-23 07:47 50.47590 131.46309 38035 ft 456 kts 315°
2026-04-23 07:47 50.51960 131.39068 38062 ft 457 kts 315°
2026-04-23 07:48 50.56326 131.31812 38042 ft 456 kts 314°
2026-04-23 07:48 50.60687 131.24541 38043 ft 457 kts 314°
2026-04-23 07:49 50.65043 131.17260 38026 ft 457 kts 314°
2026-04-23 07:49 50.69390 131.09973 38050 ft 455 kts 314°
2026-04-23 07:50 50.73699 131.02727 38052 ft 455 kts 314°
2026-04-23 07:50 50.78030 130.95428 38058 ft 455 kts 314°
2026-04-23 07:51 50.82351 130.88120 38039 ft 455 kts 314°
2026-04-23 07:51 50.86667 130.80787 38037 ft 454 kts 314°
2026-04-23 07:52 50.90966 130.73467 38040 ft 454 kts 314°
2026-04-23 07:52 50.95263 130.66129 38050 ft 454 kts 314°
2026-04-23 07:53 50.99554 130.58779 38045 ft 454 kts 314°
2026-04-23 07:53 51.03834 130.51427 38039 ft 454 kts 314°
2026-04-23 07:54 51.08115 130.44052 38035 ft 453 kts 313°
2026-04-23 07:54 51.12394 130.36658 38046 ft 454 kts 313°
2026-04-23 07:55 51.16665 130.29257 38038 ft 454 kts 313°
2026-04-23 07:55 51.20928 130.21846 38039 ft 452 kts 313°
2026-04-23 07:56 51.25174 130.14445 38045 ft 452 kts 313°
2026-04-23 07:56 51.29414 130.07034 38038 ft 452 kts 313°
2026-04-23 07:57 51.33648 129.99561 38040 ft 454 kts 312°
2026-04-23 07:57 51.37816 129.91986 38038 ft 453 kts 312°
2026-04-23 07:58 51.41981 129.84426 38039 ft 452 kts 312°
2026-04-23 07:58 51.46133 129.76869 38043 ft 452 kts 312°
2026-04-23 07:59 51.50284 129.69290 38037 ft 452 kts 312°
2026-04-23 07:59 51.54429 129.61700 38043 ft 452 kts 311°
2026-04-23 08:00 51.58560 129.54113 38035 ft 450 kts 311°
2026-04-23 08:00 51.62677 129.46530 38042 ft 450 kts 311°
2026-04-23 08:01 51.66787 129.38935 38040 ft 450 kts 311°
2026-04-23 08:01 51.70897 129.31319 38041 ft 450 kts 311°
2026-04-23 08:02 51.74995 129.23702 38038 ft 449 kts 311°
2026-04-23 08:02 51.79078 129.16089 38039 ft 449 kts 311°
2026-04-23 08:03 51.83158 129.08459 38038 ft 448 kts 311°
2026-04-23 08:03 51.87207 129.00864 38043 ft 448 kts 311°
2026-04-23 08:04 51.91279 128.93202 38040 ft 448 kts 311°
2026-04-23 08:04 51.95349 128.85523 38040 ft 449 kts 311°
2026-04-23 08:05 51.99412 128.77832 38038 ft 449 kts 311°
2026-04-23 08:05 52.03468 128.70132 38047 ft 449 kts 311°
2026-04-23 08:06 52.07523 128.62410 38045 ft 450 kts 311°
2026-04-23 08:06 52.11610 128.54600 38049 ft 456 kts 311°
2026-04-23 08:07 52.15714 128.46737 38042 ft 455 kts 311°
2026-04-23 08:07 52.19810 128.38862 38042 ft 455 kts 311°
2026-04-23 08:08 52.23900 128.30975 38037 ft 455 kts 311°
2026-04-23 08:08 52.28004 128.23037 38045 ft 460 kts 310°
2026-04-23 08:09 52.32145 128.15003 38034 ft 462 kts 310°
2026-04-23 08:09 52.36275 128.06963 38042 ft 462 kts 310°
2026-04-23 08:10 52.40405 127.98897 38039 ft 462 kts 310°
2026-04-23 08:10 52.46571 127.86808 38038 ft 464 kts 310°
2026-04-23 08:11 52.50698 127.78681 38035 ft 463 kts 310°
2026-04-23 08:11 52.54823 127.70537 38033 ft 464 kts 310°
2026-04-23 08:12 52.58942 127.62382 38032 ft 464 kts 310°
2026-04-23 08:12 52.63061 127.54200 38029 ft 466 kts 309°
2026-04-23 08:13 52.67195 127.45966 38038 ft 466 kts 309°
2026-04-23 08:13 52.71289 127.37674 38033 ft 466 kts 308°
2026-04-23 08:14 52.75384 127.29376 38031 ft 466 kts 308°
2026-04-23 08:14 52.79473 127.21067 38031 ft 466 kts 308°
2026-04-23 08:15 52.83561 127.12730 38028 ft 466 kts 308°
2026-04-23 08:15 52.87640 127.04387 38025 ft 466 kts 308°
2026-04-23 08:16 52.91710 126.96035 38029 ft 466 kts 308°
2026-04-23 08:16 52.95782 126.87650 38029 ft 466 kts 307°
2026-04-23 08:17 52.99833 126.79281 38021 ft 463 kts 307°
2026-04-23 08:17 53.03869 126.70916 38025 ft 464 kts 307°
2026-04-23 08:18 53.07898 126.62536 38023 ft 464 kts 307°
2026-04-23 08:18 53.11241 126.55563 38020 ft 464 kts 307°
2026-04-23 08:19 53.15253 126.47167 38015 ft 462 kts 306°
2026-04-23 08:19 53.19887 126.37438 38017 ft 461 kts 306°
2026-04-23 08:20 53.23221 126.30412 38010 ft 461 kts 306°
2026-04-23 08:20 53.27199 126.22004 38007 ft 461 kts 306°
2026-04-23 08:21 53.31165 126.13594 38021 ft 461 kts 306°
2026-04-23 08:21 53.35131 126.05157 38005 ft 461 kts 306°
2026-04-23 08:22 53.39094 125.96694 38005 ft 461 kts 306°
2026-04-23 08:22 53.43026 125.88279 38009 ft 461 kts 306°
2026-04-23 08:23 53.46715 125.79535 37972 ft 455 kts 290°
2026-04-23 08:23 53.48479 125.69417 37943 ft 455 kts 282°
2026-04-23 08:24 53.50066 125.59123 38001 ft 455 kts 282°
2026-04-23 08:24 53.51583 125.48812 37991 ft 454 kts 281°
2026-04-23 08:25 53.53083 125.38476 37984 ft 455 kts 281°
2026-04-23 08:25 53.54574 125.28131 37999 ft 455 kts 281°
2026-04-23 08:26 53.56055 125.17793 37969 ft 454 kts 281°
2026-04-23 08:26 53.57521 125.07473 37972 ft 454 kts 281°
2026-04-23 08:27 53.58981 124.97139 37978 ft 454 kts 281°
2026-04-23 08:27 53.60432 124.86796 37972 ft 454 kts 281°
2026-04-23 08:28 53.61873 124.76455 37970 ft 454 kts 280°
2026-04-23 08:28 53.63306 124.66095 37965 ft 454 kts 280°
2026-04-23 08:29 53.64731 124.55728 37956 ft 454 kts 280°
2026-04-23 08:29 53.66146 124.45354 37956 ft 454 kts 280°
2026-04-23 08:30 53.67551 124.34992 37952 ft 452 kts 280°
2026-04-23 08:30 53.68931 124.24729 37953 ft 452 kts 280°
2026-04-23 08:31 53.70312 124.14390 37944 ft 452 kts 280°
2026-04-23 08:31 53.71685 124.04042 37938 ft 452 kts 279°
2026-04-23 08:32 53.73049 123.93688 37928 ft 452 kts 279°
2026-04-23 08:32 53.74404 123.83328 37933 ft 451 kts 279°
2026-04-23 08:33 53.75748 123.72971 37926 ft 452 kts 279°
2026-04-23 08:33 53.77087 123.62601 37931 ft 451 kts 279°
2026-04-23 08:34 53.78417 123.52236 37927 ft 451 kts 279°
2026-04-23 08:34 53.78961 123.41827 37949 ft 442 kts 265°
2026-04-23 08:35 53.78838 123.31368 37901 ft 444 kts 265°
2026-04-23 08:35 53.78673 123.20906 37906 ft 445 kts 265°
2026-04-23 08:36 53.78493 123.10458 37924 ft 445 kts 265°
2026-04-23 08:36 53.78304 123.00056 37899 ft 447 kts 264°
2026-04-23 08:37 53.78105 122.89529 37899 ft 448 kts 264°
2026-04-23 08:37 53.77895 122.79002 37909 ft 448 kts 264°
2026-04-23 08:38 53.77677 122.68482 37893 ft 448 kts 264°
2026-04-23 08:38 53.77449 122.57961 37893 ft 448 kts 264°
2026-04-23 08:39 53.77212 122.47429 37896 ft 448 kts 264°
2026-04-23 08:39 53.76966 122.36903 37890 ft 448 kts 264°
2026-04-23 08:40 53.76711 122.26391 37895 ft 448 kts 264°
2026-04-23 08:40 53.76450 122.15862 37895 ft 449 kts 265°
2026-04-23 08:41 53.76211 122.05307 37898 ft 450 kts 265°
2026-04-23 08:41 53.75964 121.94751 37893 ft 449 kts 265°
2026-04-23 08:42 53.75707 121.84195 37890 ft 449 kts 265°
2026-04-23 08:42 53.75442 121.73647 37900 ft 449 kts 265°
2026-04-23 08:43 53.75167 121.63102 37898 ft 449 kts 264°
2026-04-23 08:43 53.74882 121.52548 37913 ft 449 kts 264°
2026-04-23 08:44 53.74589 121.42011 37911 ft 449 kts 264°
2026-04-23 08:44 53.74286 121.31478 37923 ft 449 kts 264°
2026-04-23 08:45 53.73976 121.20973 37914 ft 446 kts 264°
2026-04-23 08:45 53.73658 121.10548 37910 ft 443 kts 264°
2026-04-23 08:46 53.73334 121.00230 37904 ft 443 kts 264°
2026-04-23 08:46 53.72998 120.89772 37914 ft 443 kts 264°
2026-04-23 08:47 53.72654 120.79382 37907 ft 443 kts 264°
2026-04-23 08:47 53.72301 120.69000 37900 ft 443 kts 264°
2026-04-23 08:48 53.71939 120.58620 37909 ft 443 kts 264°
2026-04-23 08:48 53.71571 120.48306 37892 ft 443 kts 263°
2026-04-23 08:49 53.71191 120.37911 37891 ft 444 kts 263°
2026-04-23 08:49 53.70802 120.27522 37895 ft 444 kts 263°
2026-04-23 08:50 53.70404 120.17124 37886 ft 443 kts 263°
2026-04-23 08:50 53.69998 120.06753 37888 ft 443 kts 263°
2026-04-23 08:51 53.69582 119.96372 37872 ft 443 kts 263°
2026-04-23 08:51 53.69160 119.85975 37872 ft 446 kts 263°
2026-04-23 08:52 53.68726 119.75517 37855 ft 447 kts 263°
2026-04-23 08:52 53.67950 119.65150 37875 ft 445 kts 258°
2026-04-23 08:53 53.66955 119.54854 37851 ft 445 kts 258°
2026-04-23 08:53 53.65944 119.44569 37842 ft 444 kts 258°
2026-04-23 08:54 53.64924 119.34311 37845 ft 444 kts 258°
2026-04-23 08:54 53.63896 119.24051 37862 ft 444 kts 258°
2026-04-23 08:55 53.62865 119.13875 37849 ft 443 kts 258°
2026-04-23 08:55 53.61819 119.03628 37845 ft 444 kts 258°
2026-04-23 08:56 53.60764 118.93389 37852 ft 444 kts 258°
2026-04-23 08:56 53.59700 118.83151 37852 ft 444 kts 258°
2026-04-23 08:57 53.58628 118.72920 37846 ft 444 kts 258°
2026-04-23 08:57 53.57550 118.62727 37856 ft 441 kts 258°
2026-04-23 08:58 53.56465 118.52550 37856 ft 443 kts 258°
2026-04-23 08:58 53.55369 118.42357 37854 ft 443 kts 258°
2026-04-23 08:59 53.54266 118.32181 37854 ft 443 kts 258°
2026-04-23 08:59 53.53152 118.22002 37855 ft 443 kts 258°
2026-04-23 09:00 53.52031 118.11834 37883 ft 443 kts 258°
2026-04-23 09:00 53.50901 118.01670 37861 ft 442 kts 258°
2026-04-23 09:01 53.49766 117.91530 37900 ft 440 kts 258°
2026-04-23 09:01 53.48626 117.81450 37883 ft 439 kts 258°
2026-04-23 09:02 53.47476 117.71352 37879 ft 440 kts 258°
2026-04-23 09:02 53.46327 117.61339 37884 ft 440 kts 258°
2026-04-23 09:03 53.45162 117.51260 37885 ft 440 kts 258°
2026-04-23 09:03 53.43986 117.41179 37885 ft 440 kts 258°
2026-04-23 09:04 53.42804 117.31112 37892 ft 440 kts 258°
2026-04-23 09:04 53.41609 117.21025 37897 ft 442 kts 258°
2026-04-23 09:05 53.40401 117.10891 37896 ft 443 kts 258°
2026-04-23 09:05 53.39392 117.02477 37889 ft 443 kts 258°
2026-04-23 09:06 53.38172 116.92360 37893 ft 443 kts 258°
2026-04-23 09:06 53.36927 116.82253 37880 ft 443 kts 256°
2026-04-23 09:07 53.35529 116.72209 37881 ft 444 kts 256°
2026-04-23 09:07 53.34144 116.62155 37880 ft 443 kts 256°
2026-04-23 09:08 53.32754 116.52108 37879 ft 444 kts 256°
2026-04-23 09:08 53.31356 116.42066 37880 ft 441 kts 257°
2026-04-23 09:09 53.29961 116.32115 37881 ft 439 kts 257°
2026-04-23 09:09 53.28559 116.22180 37880 ft 439 kts 256°
2026-04-23 09:10 53.26439 116.07281 37883 ft 439 kts 256°
2026-04-23 09:11 53.25017 115.97367 37877 ft 439 kts 256°
2026-04-23 09:11 53.23586 115.87451 37898 ft 439 kts 256°
2026-04-23 09:12 53.22155 115.77601 37890 ft 439 kts 256°
2026-04-23 09:12 53.20711 115.67720 37898 ft 436 kts 256°
2026-04-23 09:13 53.19267 115.57906 37887 ft 435 kts 256°
2026-04-23 09:13 53.17814 115.48096 37891 ft 436 kts 256°
2026-04-23 09:14 53.16355 115.38300 37894 ft 436 kts 256°
2026-04-23 09:14 53.14887 115.28504 37897 ft 436 kts 256°
2026-04-23 09:15 53.13409 115.18701 37899 ft 437 kts 256°
2026-04-23 09:15 53.11918 115.08878 37896 ft 437 kts 256°
2026-04-23 09:16 53.10421 114.99064 37903 ft 437 kts 256°
2026-04-23 09:16 53.08919 114.89289 37905 ft 435 kts 256°
2026-04-23 09:17 53.07413 114.79539 37905 ft 436 kts 256°
2026-04-23 09:17 53.05898 114.69794 37918 ft 435 kts 256°
2026-04-23 09:18 53.04375 114.60053 37923 ft 435 kts 256°
2026-04-23 09:18 53.02851 114.50369 37913 ft 437 kts 256°
2026-04-23 09:19 53.01307 114.40608 37922 ft 437 kts 256°
2026-04-23 09:19 52.99753 114.30845 37913 ft 437 kts 256°
2026-04-23 09:20 52.98196 114.21123 37919 ft 435 kts 256°
2026-04-23 09:20 52.96635 114.11423 37928 ft 435 kts 256°
2026-04-23 09:21 52.95066 114.01737 37930 ft 435 kts 256°
2026-04-23 09:21 52.93489 113.92048 37937 ft 436 kts 256°
2026-04-23 09:22 52.91900 113.82350 37928 ft 436 kts 256°
2026-04-23 09:22 52.90311 113.72707 37927 ft 436 kts 256°
2026-04-23 09:23 52.88704 113.63009 37927 ft 437 kts 256°
2026-04-23 09:23 52.87094 113.53344 37932 ft 435 kts 256°
2026-04-23 09:24 52.85480 113.43709 37943 ft 435 kts 256°
2026-04-23 09:24 52.83855 113.34065 37939 ft 435 kts 255°
2026-04-23 09:25 52.82221 113.24420 37936 ft 436 kts 256°
2026-04-23 09:25 52.80578 113.14778 37955 ft 436 kts 256°
2026-04-23 09:26 52.78926 113.05135 37949 ft 436 kts 255°
2026-04-23 09:26 52.77277 112.95559 37949 ft 436 kts 255°
2026-04-23 09:27 52.75611 112.85938 37959 ft 435 kts 256°
2026-04-23 09:27 52.73941 112.76343 37962 ft 435 kts 256°
2026-04-23 09:28 52.72264 112.66767 37967 ft 434 kts 255°
2026-04-23 09:28 52.70577 112.57179 37975 ft 436 kts 256°
2026-04-23 09:29 52.68880 112.47592 37976 ft 436 kts 256°
2026-04-23 09:29 52.67174 112.38000 37998 ft 436 kts 255°
2026-04-23 09:30 52.65460 112.28411 37994 ft 437 kts 256°
2026-04-23 09:30 52.63736 112.18826 37981 ft 436 kts 256°
2026-04-23 09:31 52.62010 112.09276 38004 ft 435 kts 256°
2026-04-23 09:31 52.60281 111.99745 38012 ft 435 kts 256°
2026-04-23 09:32 52.58542 111.90209 38014 ft 436 kts 256°
2026-04-23 09:32 52.56796 111.80672 38019 ft 436 kts 256°
2026-04-23 09:33 52.55041 111.71141 38017 ft 436 kts 256°
2026-04-23 09:33 52.53280 111.61617 38032 ft 436 kts 256°
2026-04-23 09:34 52.51487 111.52106 38005 ft 436 kts 255°
2026-04-23 09:34 52.49670 111.42707 38038 ft 434 kts 255°
2026-04-23 09:35 52.47849 111.33249 38049 ft 435 kts 256°
2026-04-23 09:35 52.46017 111.23786 38050 ft 436 kts 256°
2026-04-23 09:36 52.44176 111.14318 38043 ft 436 kts 256°
2026-04-23 09:36 52.42326 111.04854 38061 ft 436 kts 256°
2026-04-23 09:37 52.40470 110.95405 38070 ft 436 kts 256°
2026-04-23 09:37 52.38605 110.85955 38071 ft 436 kts 255°
2026-04-23 09:38 52.36736 110.76530 38069 ft 435 kts 256°
2026-04-23 09:38 52.34865 110.67142 38070 ft 434 kts 256°
2026-04-23 09:39 52.32987 110.57769 38085 ft 434 kts 256°
2026-04-23 09:39 52.31101 110.48394 38082 ft 434 kts 256°
2026-04-23 09:40 52.29209 110.39038 38084 ft 434 kts 256°
2026-04-23 09:40 52.27826 110.32223 38095 ft 434 kts 256°
2026-04-23 09:41 52.26299 110.24729 38104 ft 434 kts 256°
2026-04-23 09:41 52.24374 110.15321 38091 ft 434 kts 256°
2026-04-23 09:42 52.22457 110.05992 38097 ft 432 kts 256°
2026-04-23 09:42 52.20541 109.96720 38114 ft 431 kts 256°
2026-04-23 09:43 52.18620 109.87451 38099 ft 431 kts 256°
2026-04-23 09:43 52.16751 109.78176 38093 ft 428 kts 262°
2026-04-23 09:44 52.15478 109.68729 38097 ft 428 kts 261°
2026-04-23 09:44 52.14122 109.59291 38115 ft 428 kts 261°
2026-04-23 09:45 52.12756 109.49926 38115 ft 428 kts 261°
2026-04-23 09:45 52.11377 109.40528 38121 ft 425 kts 261°
2026-04-23 09:46 52.09997 109.31188 38125 ft 424 kts 261°
2026-04-23 09:46 52.08613 109.21873 38045 ft 422 kts 261°
2026-04-23 09:46 52.07928 109.17283 37167 ft 416 kts 261°
2026-04-23 09:47 52.07243 109.12709 36106 ft 417 kts 261°
2026-04-23 09:47 52.06553 109.08128 35106 ft 417 kts 261°
2026-04-23 09:47 52.05864 109.03564 34142 ft 416 kts 261°
2026-04-23 09:47 52.05174 108.99005 33032 ft 414 kts 262°
2026-04-23 09:48 52.04487 108.94477 31978 ft 412 kts 262°
2026-04-23 09:48 52.03801 108.89975 30953 ft 408 kts 263°
2026-04-23 09:48 52.03122 108.85531 29909 ft 403 kts 264°
2026-04-23 09:48 52.02439 108.81070 28713 ft 410 kts 264°
2026-04-23 09:49 52.01745 108.76553 27549 ft 413 kts 264°
2026-04-23 09:49 52.01066 108.72011 25904 ft 416 kts 264°
2026-04-23 09:49 52.00394 108.67480 24683 ft 410 kts 265°
2026-04-23 09:49 51.99732 108.63030 23384 ft 404 kts 265°
2026-04-23 09:50 51.99079 108.58555 21391 ft 410 kts 264°
2026-04-23 09:50 51.98439 108.54057 19975 ft 406 kts 264°
2026-04-23 09:50 51.97900 108.49621 18758 ft 396 kts 265°
2026-04-23 09:50 51.97411 108.45189 16679 ft 404 kts 265°
2026-04-23 09:51 51.97019 108.40703 14665 ft 411 kts 265°
2026-04-23 09:51 51.96553 108.36104 12497 ft 419 kts 262°
2026-04-23 09:51 51.95921 108.31468 10499 ft 423 kts 258°
2026-04-23 09:51 51.95112 108.26953 9776 ft 400 kts 255°
2026-04-23 09:52 51.94102 108.22990 9834 ft 363 kts 250°
2026-04-23 09:52 51.93229 108.19390 10089 ft 323 kts 253°
2026-04-23 09:52 51.92527 108.16107 10131 ft 295 kts 255°
2026-04-23 09:52 51.91941 108.13067 10140 ft 271 kts 257°
2026-04-23 09:53 51.91429 108.10204 10136 ft 262 kts 258°
2026-04-23 09:53 51.90919 108.07360 10042 ft 264 kts 256°
2026-04-23 09:53 51.90366 108.04535 9674 ft 260 kts 256°
2026-04-23 09:53 51.89836 108.01769 9263 ft 254 kts 257°
2026-04-23 09:54 51.89323 107.99064 8863 ft 249 kts 257°
2026-04-23 09:54 51.88990 107.97299 8617 ft 245 kts 256°
2026-04-23 09:54 51.88330 107.94765 8240 ft 242 kts 250°
2026-04-23 09:54 51.87684 107.92305 7928 ft 233 kts 254°
2026-04-23 09:55 51.87178 107.89859 7602 ft 226 kts 258°
2026-04-23 09:55 51.86754 107.87444 7251 ft 220 kts 260°
2026-04-23 09:55 51.86379 107.85056 7003 ft 217 kts 261°
2026-04-23 09:55 51.86039 107.82690 6730 ft 217 kts 262°
2026-04-23 09:56 51.85712 107.80297 6452 ft 219 kts 263°
2026-04-23 09:56 51.85389 107.77885 6119 ft 220 kts 263°
2026-04-23 09:56 51.85070 107.75467 5814 ft 220 kts 262°
2026-04-23 09:56 51.84755 107.73053 5563 ft 219 kts 262°
2026-04-23 09:57 51.84437 107.70626 5222 ft 222 kts 262°
2026-04-23 09:57 51.84117 107.68183 4886 ft 223 kts 262°
2026-04-23 09:57 51.83799 107.65716 4538 ft 224 kts 263°
2026-04-23 09:57 51.83488 107.63248 4218 ft 219 kts 265°
2026-04-23 09:58 51.83384 107.60885 3908 ft 212 kts 276°
2026-04-23 09:58 51.83505 107.58547 3549 ft 203 kts 271°
2026-04-23 09:58 51.83144 107.56386 3094 ft 199 kts 248°
2026-04-23 09:58 51.82543 107.54496 2944 ft 173 kts 248°
2026-04-23 09:59 51.82055 107.52820 2548 ft 157 kts 255°
2026-04-23 09:59 51.81846 107.51227 2336 ft 137 kts 265°
2026-04-23 09:59 51.81706 107.49673 2103 ft 141 kts 262°
2026-04-23 09:59 51.81499 107.48109 1945 ft 142 kts 261°
2026-04-23 10:00 51.81302 107.46558 1771 ft 141 kts 262°
2026-04-23 10:00 51.81117 107.45088 1720 ft 115 kts 258°
2026-04-23 10:00 51.80998 107.44189 1721 ft 52 kts 258°